Location: Demre
(36.2444°N, 29.9850°E)
Time: 05:48:01
(UTC+00:00)

Haruka - Pass Details

Date: 11 March 2026
Orbit: 535 x 21114 km, 31.3° (Epoch: 21 April)

Event Time Altitude Azimuth Distance (km) Brightness Sun altitude
Rises 17:23:47 0° 274° (W) 4,382 8.7 -16.9°
Reaches altitude 10° 17:27:56 10° 260° (W) 2,433 6.7 -17.7°
Maximum altitude 17:31:35 23° 205° (SSW) 1,237 4.2 -18.5°
Enters shadow 17:33:06 17° 167° (SSE) 1,379 4.1 -18.8°
